(70447) = 1998 KY56 = 1999 TG14

Discovered at Visnjan on 1999-10-10 by K. Korlevic and M. Juric.

Orbit

Orbit type: Main Belt

Note: WebGL enabled browser required.

epoch2024-03-31.0
epoch JD2460400.5
perihelion date2021-08-07.72869
perihelion JD2459434.22869
argument of perihelion (°)306.36873
ascending node (°)42.06803
inclination (°)7.31466
eccentricity0.1311820
perihelion distance (AU)2.0728148
Tisserand w.r.t. Jupiter3.5
ΔV w.r.t. Earth (km/sec)9.2
semimajor axis (AU)2.3857872
mean anomaly (°)258.43741
mean daily motion (°/day)0.26745840
aphelion distance (AU)2.699
period (years)3.69
P-vector [x]0.97531349
P-vector [y]-0.13866594
P-vector [z]-0.17185852
Q-vector [x]0.20368277
Q-vector [y]0.86554307
Q-vector [z]0.45754619
absolute magnitude14.98
phase slope0.15
uncertainty0
referenceMPEC 2024-F28
observations used1860
oppositions18
arc length (days)9153
first opposition used1998
last opposition used2023
residual rms (arc-secs)0.66
perturbers coarse indicatorM-v
perturbers precise indicator003Ek
first observation date used1998-04-21.0
last observation date used2023-05-13.0
computer nameMPCLINUX
JD of orbit computation2456966.917068
perihelion JD uncertainty (days)6.1625E-05
argument of perihelion uncertainty (°)3.6381E-05
ascending node uncertainty (°)3.2406E-05
inclination uncertainty (°)5.3053E-06
eccentricity uncertainty 4.8651E-08
perihelion distance uncertainty (AU)1.1739E-07
Minimum Orbit Intersection Distances (in AU)
for orbit epoch: 2460400.5, reference: E2024-GH2
Mercury1.68332
Venus1.34664
Earth1.07689
Mars0.69199
Jupiter2.71875
Saturn6.55487
Uranus15.7543
Neptune27.5952

Observations

1902 total observations over interval: 1998 04 21.30831 – 2023 05 13.173160
These data are available for download (format description).

Date (UT) J2000 RA J2000 Dec Magn Location Ref
1998 04 21.30831 14 49 19.61 -15 37 20.3 18.9   704 – Lincoln Laboratory ETS, New Mexico MPS 7381
1998 04 21.32864 14 49 18.46 -15 37 19.7 19.2   704 – Lincoln Laboratory ETS, New Mexico MPS 7381
1998 04 21.34876 14 49 17.23 -15 37 19.5 19.2   704 – Lincoln Laboratory ETS, New Mexico MPS 7381
1998 04 21.36950 14 49 15.83 -15 37 14.9 19.3   704 – Lincoln Laboratory ETS, New Mexico MPS 7381
1998 04 21.38965 14 49 14.72 -15 37 14.7 18.9   704 – Lincoln Laboratory ETS, New Mexico MPS 7381
1998 05 01.27414 14 39 06.46 -15 20 53.1 18.8   704 – Lincoln Laboratory ETS, New Mexico MPS 7381
1998 05 01.31190 14 39 04.03 -15 20 49.4 18.6   704 – Lincoln Laboratory ETS, New Mexico MPS 7381
1998 05 01.33084 14 39 02.78 -15 20 45.9 18.8   704 – Lincoln Laboratory ETS, New Mexico MPS 7381
1998 05 01.34972 14 39 01.51 -15 20 44.6 18.6   704 – Lincoln Laboratory ETS, New Mexico MPS 7381
1998 05 23.18798 14 17 14.43 -14 41 53.3 19.3   704 – Lincoln Laboratory ETS, New Mexico MPS 1530
1998 05 23.20779 14 17 13.40 -14 41 53.0 19.0   704 – Lincoln Laboratory ETS, New Mexico MPS 1530
1998 05 23.22754 14 17 12.38 -14 41 49.3 19.2   704 – Lincoln Laboratory ETS, New Mexico MPS 1530
1998 05 23.24752 14 17 11.14 -14 41 49.2 18.9   704 – Lincoln Laboratory ETS, New Mexico MPS 1530
1998 05 24.15580 14 16 25.85 -14 40 36.3 19.0   704 – Lincoln Laboratory ETS, New Mexico MPS 1530
1998 05 24.17546 14 16 24.76 -14 40 37.0 19.0   704 – Lincoln Laboratory ETS, New Mexico MPS 1530
1998 05 24.19518 14 16 23.83 -14 40 33.6 18.5   704 – Lincoln Laboratory ETS, New Mexico MPS 1530
1998 05 24.21478 14 16 22.82 -14 40 32.9 18.5   704 – Lincoln Laboratory ETS, New Mexico MPS 1530
1998 05 24.23451 14 16 21.66 -14 40 33.0 19.3   704 – Lincoln Laboratory ETS, New Mexico MPS 1530
1999 10 04.30542 02 03 11.37 +07 25 57.0 17.3 R 703 – Catalina Sky Survey MPS 8565
1999 10 04.31751 02 03 10.70 +07 25 56.1 17.4 R 703 – Catalina Sky Survey MPS 8565
1999 10 04.32961 02 03 10.05 +07 25 55.8 17.4 R 703 – Catalina Sky Survey MPS 8565
1999 10 04.34170 02 03 09.37 +07 25 55.2 17.3 R 703 – Catalina Sky Survey MPS 8565
1999 10 07.36219 02 00 26.42 +07 23 09.4 17.4   704 – Lincoln Laboratory ETS, New Mexico MPS 6924
1999 10 07.37288 02 00 25.79 +07 23 08.8 17.5   704 – Lincoln Laboratory ETS, New Mexico MPS 6924
1999 10 07.38359 02 00 25.13 +07 23 08.9 17.9   704 – Lincoln Laboratory ETS, New Mexico MPS 6924
1999 10 07.39429 02 00 24.54 +07 23 07.8 17.5   704 – Lincoln Laboratory ETS, New Mexico MPS 6924
1999 10 07.40503 02 00 23.91 +07 23 07.3 17.9   704 – Lincoln Laboratory ETS, New Mexico MPS 6924
1999 10 09.28981 01 58 36.70 +07 21 14.2 17.7   704 – Lincoln Laboratory ETS, New Mexico MPS 12010
1999 10 09.30309 01 58 35.93 +07 21 13.6 17.6   704 – Lincoln Laboratory ETS, New Mexico MPS 12010
1999 10 09.31613 01 58 35.12 +07 21 12.2 17.6   704 – Lincoln Laboratory ETS, New Mexico MPS 12010
1999 10 10.98912 01 56 56.62 +07 19 26.3 17.7   120 – Visnjan MPS 6924
1999 10 11.01785 01 56 54.85 +07 19 24.4   120 – Visnjan MPS 6924
1999 10 12.29476 01 55 38.04 +07 18 04.2 16.6 R 699 – Lowell Observatory-LONEOS MPS 7826
1999 10 12.32532 01 55 36.15 +07 18 02.1   699 – Lowell Observatory-LONEOS MPS 7826
1999 10 12.35591 01 55 34.19 +07 18 01.0   699 – Lowell Observatory-LONEOS MPS 7826
1999 10 13.01529 01 54 54.01 +07 17 15.4 17.8   120 – Visnjan MPS 6924
1999 10 13.02819 01 54 53.10 +07 17 14.6   120 – Visnjan MPS 6924
1999 10 15.26194 01 52 34.96 +07 14 50.8 17.1   704 – Lincoln Laboratory ETS, New Mexico MPS 12010
1999 10 15.27911 01 52 33.84 +07 14 49.8 17.5   704 – Lincoln Laboratory ETS, New Mexico MPS 12010
1999 10 15.29536 01 52 32.77 +07 14 48.8 17.1   704 – Lincoln Laboratory ETS, New Mexico MPS 12010
1999 10 15.32828 01 52 30.58 +07 14 46.4 17.4   704 – Lincoln Laboratory ETS, New Mexico MPS 12010
1999 10 19.19688 01 48 26.03 +07 10 43.5 17.4   704 – Lincoln Laboratory ETS, New Mexico MPS 12010
1999 10 19.21063 01 48 25.08 +07 10 42.9 17.3   704 – Lincoln Laboratory ETS, New Mexico MPS 12010
1999 10 19.22437 01 48 24.21 +07 10 42.0 17.2   704 – Lincoln Laboratory ETS, New Mexico MPS 12010
1999 10 19.23818 01 48 23.28 +07 10 41.4 17.4   704 – Lincoln Laboratory ETS, New Mexico MPS 12010
1999 10 19.25197 01 48 22.38 +07 10 40.4 17.4   704 – Lincoln Laboratory ETS, New Mexico MPS 12010
1999 10 19.96010 01 47 37.07 +07 09 57.3 17.7   120 – Visnjan MPS 6924
1999 10 19.98016 01 47 35.83 +07 09 55.8   120 – Visnjan MPS 6924
1999 10 30.17309 01 37 00.31 +07 02 48.4 16.8 R 699 – Lowell Observatory-LONEOS MPS 7826
1999 10 30.19854 01 36 58.65 +07 02 48.2   699 – Lowell Observatory-LONEOS MPS 7826
1999 10 30.22399 01 36 57.14 +07 02 48.2   699 – Lowell Observatory-LONEOS MPS 7826
1999 11 02.18413 01 34 05.73 +07 02 11.7 17.0 R 703 – Catalina Sky Survey MPS 7381
1999 11 02.20032 01 34 04.74 +07 02 11.6 17.2 R 703 – Catalina Sky Survey MPS 7381
1999 11 02.21652 01 34 03.77 +07 02 11.1 17.5 R 703 – Catalina Sky Survey MPS 7381
1999 11 02.23278 01 34 02.85 +07 02 11.6 17.4 R 703 – Catalina Sky Survey MPS 7381
1999 11 05.24707 01 31 18.34 +07 02 29.3 17.3   704 – Lincoln Laboratory ETS, New Mexico MPS 7381
1999 11 05.26336 01 31 17.42 +07 02 29.5 17.7   704 – Lincoln Laboratory ETS, New Mexico MPS 7381
1999 11 05.27958 01 31 16.53 +07 02 29.7 17.4   704 – Lincoln Laboratory ETS, New Mexico MPS 7381
1999 11 05.29579 01 31 15.63 +07 02 30.1 17.1   704 – Lincoln Laboratory ETS, New Mexico MPS 7381
1999 11 05.31201 01 31 14.78 +07 02 30.4 18.0   704 – Lincoln Laboratory ETS, New Mexico MPS 7381
1999 11 12.21450 01 25 47.87 +07 07 13.3 17.5   704 – Lincoln Laboratory ETS, New Mexico MPS 7381
1999 11 12.23041 01 25 47.16 +07 07 14.6 17.9   704 – Lincoln Laboratory ETS, New Mexico MPS 7381
1999 11 12.24536 01 25 46.49 +07 07 15.2 17.8   704 – Lincoln Laboratory ETS, New Mexico MPS 7381
1999 11 12.25998 01 25 45.83 +07 07 16.4 17.7   704 – Lincoln Laboratory ETS, New Mexico MPS 7381
1999 11 12.27442 01 25 45.21 +07 07 17.4 17.9   704 – Lincoln Laboratory ETS, New Mexico MPS 7381
1999 11 17.12935 01 22 44.39 +07 14 21.8 17.7   704 – Lincoln Laboratory ETS, New Mexico MPS 7381
1999 11 17.14498 01 22 43.74 +07 14 25.4 17.5   704 – Lincoln Laboratory ETS, New Mexico MPS 7381
1999 11 17.16073 01 22 43.21 +07 14 27.0 18.0   704 – Lincoln Laboratory ETS, New Mexico MPS 7381
1999 11 17.17640 01 22 42.67 +07 14 28.9 18.0   704 – Lincoln Laboratory ETS, New Mexico MPS 7381
1999 11 17.19212 01 22 42.06 +07 14 31.8 18.1   704 – Lincoln Laboratory ETS, New Mexico MPS 7381
1999 12 02.13589 01 18 10.76 +07 57 23.6 18.1 R 699 – Lowell Observatory-LONEOS MPS 7826
1999 12 02.16645 01 18 10.62 +07 57 30.0   699 – Lowell Observatory-LONEOS MPS 7826
1999 12 02.19700 01 18 10.44 +07 57 37.6   699 – Lowell Observatory-LONEOS MPS 7826
1999 12 05.14753 01 18 09.15 +08 09 44.6 18.1   704 – Lincoln Laboratory ETS, New Mexico MPS 7826
1999 12 05.16210 01 18 09.25 +08 09 49.5 18.8   704 – Lincoln Laboratory ETS, New Mexico MPS 7826
1999 12 05.17729 01 18 09.25 +08 09 54.5 18.7   704 – Lincoln Laboratory ETS, New Mexico MPS 7826
1999 12 05.19251 01 18 09.14 +08 09 58.5 19.0   704 – Lincoln Laboratory ETS, New Mexico MPS 7826
1999 12 05.20719 01 18 09.15 +08 10 01.3 18.7   704 – Lincoln Laboratory ETS, New Mexico MPS 7826
1999 12 07.14268 01 18 17.80 +08 18 38.0 18.2   704 – Lincoln Laboratory ETS, New Mexico MPS 7826
1999 12 07.15796 01 18 17.81 +08 18 42.4 19.0   704 – Lincoln Laboratory ETS, New Mexico MPS 7826
1999 12 07.17287 01 18 17.95 +08 18 46.6 19.2   704 – Lincoln Laboratory ETS, New Mexico MPS 7826
1999 12 07.18779 01 18 17.98 +08 18 50.7 18.5   704 – Lincoln Laboratory ETS, New Mexico MPS 7826
1999 12 07.20271 01 18 18.13 +08 18 56.1 18.5   704 – Lincoln Laboratory ETS, New Mexico MPS 7826
2000 01 07.08067 01 34 58.16 +11 32 36.5 18.8   704 – Lincoln Laboratory ETS, New Mexico MPS 8565
2000 01 07.09549 01 34 58.94 +11 32 44.1 19.5   704 – Lincoln Laboratory ETS, New Mexico MPS 8565
2000 01 07.11027 01 34 59.67 +11 32 49.4 19.4   704 – Lincoln Laboratory ETS, New Mexico MPS 8565
2000 01 07.12505 01 35 00.49 +11 32 56.4 19.3   704 – Lincoln Laboratory ETS, New Mexico MPS 8565
